BEIDOU-3 M2 (C20)

Last updated on Thu Oct 30 2025 00:03:26 GMT+0000 (Coordinated Universal Time)

1 43002U 17069B 25301.64364884 .00000011 00000+0 00000+0 0 9996 2 43002 56.4879 70.7600 0005429 345.2707 14.7093 1.86230826 54287
UTC large
Height (km)
Speed (km/s)
/
Latitude / Longitude
Inclination (degrees)
Orbital Period (minutes)
Azimuth
Elevation
Range (km)
Doppler Factor

Next 0 passes for location: London (51.5072 / 0.1276)

Sorry there are no passes over London.